User: anonymous   Login
Location: Haliburton Scout Reserve
(45.0900°N, 78.3200°W)
Time: 04:40:15
(UTC-05:00)
Language:

BlueWalker 3 - Orbit

View from above orbital plane
View from above orbital plane
View from above satellite
View from above satellite

Ground track
Ground track

The orbit data is extracted from the following two-line orbital elements,

1 53807U 22111AL  24060.75068207  .00005978  00000-0  25432-3 0  9995
2 53807  53.2415 332.6222 0010287 121.4293 238.7713 15.24358823 81680
Epoch (UTC): 29 February 2024 18:00:58
Eccentricity: 0.0010287
inclination: 53.2415°
perigee height: 485 km
apogee height: 500 km
right ascension of ascending node: 332.6222°
argument of perigee: 121.4293°
revolutions per day: 15.24358823
mean anomaly at epoch: 238.7713°
orbit number at epoch: 8168

The dashed part of the orbit path shows where the satellite is in the earth's shadow,  

DLR